Change the Weather History Date:

Tuesday, October 8, 2013

  Actual Average Record
Temperature  
Mean Temperature 47 °F -  
Max Temperature 57 °F 67 °F 85 °F (2004)
Min Temperature 36 °F 40 °F 27 °F (1985)
Degree Days  
Heating Degree Days 18 12  
Month to date heating degree days 129 84  
Since 1 July heating degree days 236 245  
Cooling Degree Days 0 0  
Month to date cooling degree days 0 0  
Year to date cooling degree days 1138 678  
Moisture  
Dew Point 29 °F    
Average Humidity 47    
Maximum Humidity 64    
Minimum Humidity 30    
Precipitation  
Precipitation 0.00 in 0.02 in 0.20 in (1985)
Month to date precipitation 0.06 0.16  
Year to date precipitation 4.17 7.61  
Sea Level Pressure  
Sea Level Pressure 29.86 in    
Wind  
Wind Speed 13 mph (SW)    
Max Wind Speed 23 mph    
Max Gust Speed 29 mph    
Visibility 10 miles    
Events      
T = Trace of Precipitation, MM = Missing Value Source: NWS Daily Summary

Daily Weather History Graph

Daily Weather History Graph

Search for Another Location

Airport or City:

Trip Planner

Search our weather history database for the weather conditions in past years. The results will help you decide how hot, cold, wet, or windy it might be!

Date:

Astronomy

Oct. 08, 2013 Rise Set
Actual Time 7:43 AM MDT 7:06 PM MDT
Civil Twilight 7:15 AM MDT 7:34 PM MDT
Nautical Twilight 6:42 AM MDT 8:07 PM MDT
Astronomical Twilight 6:09 AM MDT 8:40 PM MDT
Moon 11:46 AM MDT (10/8) 9:42 PM MDT (10/8)
Length of Visible Light 12h 19m
Length of Day
11h 23m
Waxing Crescent, 16% of the Moon is Illuminated
Oct 8
Waxing Crescent
Oct 11
First Quarter
Oct 18
Full
Oct 26
Last Quarter
Nov 3
New

Hourly Weather History & Observations

Time (MDT) Temp. Windchill Dew Point Humidity Pressure Visibility Wind Dir Wind Speed Gust Speed Precip Events Conditions
12:53 AM 54.0 °F - 25.0 °F 33% 29.78 in 9.0 mi WSW 13.8 mph - N/A   Clear
1:53 AM 52.0 °F - 30.0 °F 43% 29.78 in 10.0 mi WSW 17.3 mph 26.5 mph N/A   Clear
2:53 AM 48.9 °F - 32.0 °F 52% 29.81 in 9.0 mi SSW 12.7 mph 24.2 mph N/A   Clear
3:53 AM 48.0 °F - 32.0 °F 54% 29.83 in 6.0 mi South 11.5 mph - N/A   Haze
4:53 AM 48.0 °F - 30.9 °F 52% 29.84 in 9.0 mi SW 15.0 mph 24.2 mph N/A   Partly Cloudy
5:53 AM 45.0 °F 37.4 °F 32.0 °F 60% 29.86 in 10.0 mi WSW 18.4 mph 25.3 mph N/A   Clear
6:53 AM 44.1 °F 37.1 °F 30.9 °F 60% 29.90 in 10.0 mi SW 15.0 mph - N/A   Clear
7:53 AM 43.0 °F 37.2 °F 30.0 °F 60% 29.96 in 9.0 mi SSW 10.4 mph - N/A   Clear
8:53 AM 42.1 °F 35.7 °F 30.0 °F 62% 29.96 in 10.0 mi SW 11.5 mph - N/A   Partly Cloudy
9:53 AM 44.1 °F 38.6 °F 30.0 °F 58% 29.94 in 10.0 mi WSW 10.4 mph - N/A   Clear
10:53 AM 48.9 °F - 30.9 °F 50% 29.91 in 10.0 mi WSW 15.0 mph 24.2 mph N/A   Clear
11:53 AM 53.1 °F - 30.9 °F 43% 29.88 in 10.0 mi WSW 13.8 mph 21.9 mph N/A   Clear
12:53 PM 55.0 °F - 30.9 °F 40% 29.88 in 10.0 mi West 15.0 mph 25.3 mph N/A   Partly Cloudy
1:53 PM 54.0 °F - 28.0 °F 37% 29.86 in 10.0 mi West 18.4 mph 24.2 mph N/A   Clear
2:53 PM 57.0 °F - 27.0 °F 32% 29.83 in 10.0 mi West 13.8 mph 25.3 mph N/A   Clear
3:53 PM 55.9 °F - 26.1 °F 32% 29.83 in 10.0 mi West 15.0 mph 26.5 mph N/A   Clear
4:53 PM 55.0 °F - 27.0 °F 34% 29.82 in 10.0 mi West 15.0 mph 24.2 mph N/A   Clear
5:53 PM 53.1 °F - 27.0 °F 37% 29.83 in 10.0 mi West 13.8 mph - N/A   Clear
6:53 PM 48.0 °F - 28.0 °F 46% 29.84 in 10.0 mi West 10.4 mph - N/A   Clear
7:53 PM 42.1 °F 39.2 °F 27.0 °F 55% 29.86 in 10.0 mi SW 4.6 mph - N/A   Clear
8:53 PM 39.9 °F 34.5 °F 26.1 °F 58% 29.87 in 10.0 mi South 8.1 mph - N/A   Clear
9:53 PM 39.0 °F 32.3 °F 26.1 °F 60% 29.85 in 10.0 mi SSW 10.4 mph - N/A   Clear
10:53 PM 39.0 °F 33.4 °F 26.1 °F 60% 29.82 in 10.0 mi South 8.1 mph - N/A   Clear
11:53 PM 37.9 °F 32.1 °F 26.1 °F 62% 29.81 in 10.0 mi South 8.1 mph - N/A   Clear